Location: Talljärv
(66.2667°N, 22.2500°E)
Time: 20:11:53
(UTC+00:00)

Daily predictions for brighter satellites

Satellite Brightness Start Highest point End
(mag) Time Altitude Azimuth Time Altitude Azimuth Time Altitude Azimuth
Cosmos 1943 Rocket 2.5 18:12:40 10° NW 18:18:08 65° SW 18:23:36 10° SSE
USA 59 Rocket 1.9 18:17:10 10° W 18:19:38 18° SW 18:22:33 10° S
Cosmos 2061 Rocket 4.1 18:13:24 10° S 18:19:51 81° ESE 18:26:20 10° NNE
Cosmos 1733 4.3 18:17:27 10° SE 18:20:09 22° E 18:22:52 10° NE
Cosmos 2026 Rocket 4.2 18:14:21 10° NNW 18:20:38 58° ENE 18:26:47 10° SE
COSMOS 2428 3.7 18:16:07 10° SSE 18:20:44 26° ESE 18:25:22 10° NE
Cosmos 1356 Rocket 3.6 18:17:03 10° NNW 18:21:14 76° WSW 18:25:26 10° SSE
Cosmos 1726 1.5 18:19:26 10° S 18:22:13 53° ESE 18:25:01 10° NNE
Cosmos 2233 Rocket 4.0 18:17:12 10° S 18:23:22 81° ESE 18:29:35 10° NNE
RESURS DK-1 3.1 18:20:43 10° W 18:24:45 53° N 18:28:46 10° ENE
Cosmos 468 Rocket 3.9 18:19:45 10° SSW 18:24:51 73° SE 18:30:01 10° NE
Cosmos 1328 Rocket 4.3 18:20:51 10° NNW 18:25:05 55° W 18:29:16 10° S
Cosmos 1536 3.6 18:22:45 10° SSE 18:26:05 29° E 18:29:28 10° NNE
Meteor 1-4 Rocket 3.0 18:23:42 10° NNW 18:26:17 41° WSW 18:28:51 10° S
Cosmos 2263 4.5 18:21:38 10° WNW 18:27:26 69° NNE 18:33:10 10° ESE
Cosmos 1674 3.7 18:24:36 10° NNW 18:27:49 41° W 18:30:59 10° SSW
Meteor 1-14 Rocket 4.5 18:23:13 10° SSE 18:28:29 47° E 18:33:47 10° NNE
Okean 1-7 4.4 18:24:57 10° N 18:28:38 26° NE 18:32:18 10° ESE
SL-14 R/B 3.5 18:26:02 10° NNW 18:29:45 51° ENE 18:33:28 10° SE
Cosmos 841 Rocket 3.6 18:25:01 10° SSW 18:30:03 53° ESE 18:35:05 10° NE
SeaSat 1 2.6 18:26:30 10° NE 18:31:28 85° NW 18:36:24 10° SW
Cosmos 1464 Rocket 4.4 18:26:04 10° SSE 18:32:05 47° E 18:38:10 10° NNE
Cosmos 1125 Rocket 3.9 18:26:57 10° NW 18:32:07 65° WSW 18:37:15 10° SSE
Cosmos 2278 Rocket 3.1 18:28:22 10° NW 18:33:47 47° WSW 18:39:11 10° SSE
Terra 1.9 18:31:25 10° SE 18:36:07 70° ENE 18:40:49 10° NNW
Meteor 1-11 Rocket 4.3 18:31:06 10° SSE 18:36:08 35° E 18:41:08 10° NNE
Iridium 4 Rocket 4.2 18:32:18 10° NNW 18:36:34 47° W 18:40:36 10° SSW
Cosmos 1743 2.5 18:34:24 10° SSW 18:38:00 84° ESE 18:41:36 10° NNE
Cosmos 2237 4.3 18:33:24 10° SW 18:39:09 88° SE 18:44:54 10° NE
Ariane Rocket 3.1 18:35:11 10° SE 18:40:11 64° ENE 18:45:15 10° NNW
USA 281 4.2 18:35:17 10° NE 18:41:34 49° NNW 18:47:51 10° W
Cosmos 540 Rocket 3.5 18:36:36 10° SW 18:41:44 89° NW 18:46:52 10° NE
SPOT 3 Rocket 3.7 18:37:09 10° SE 18:42:14 64° ENE 18:47:22 10° NNW
USA 290 4.1 18:39:36 10° NW 18:42:28 28° WSW 18:45:18 10° S
Cosmos 1862 Rocket 4.2 18:38:42 10° NNW 18:42:52 41° ENE 18:46:56 11° SE
Okean 3 4.2 18:40:39 10° NNW 18:44:32 38° ENE 18:48:15 11° SE
CZ-4B R/B 4.4 18:39:55 10° S 18:45:07 43° W 18:50:15 10° NNW
Genesis I 3.9 18:42:28 10° SSW 18:45:28 27° SE 18:48:31 10° E
ERS-1 Rocket 3.0 18:40:48 10° SSE 18:45:51 86° ENE 18:50:55 10° NNW
Cosmos 1763 Rocket 3.7 18:41:25 10° SW 18:46:30 77° NW 18:51:37 10° NE
Cosmos 1707 Rocket 4.1 18:43:53 10° NNW 18:48:14 47° ENE 18:52:21 11° SE
Cosmos 2016 Rocket 4.5 18:43:24 10° SSW 18:49:28 66° WNW 18:55:36 10° NNE
IRS-1A Rocket 4.4 18:44:32 10° SSE 18:50:21 83° WSW 18:56:05 10° NNW
Cosmos 2034 Rocket 4.3 18:44:57 10° SSE 18:50:47 45° E 18:56:36 10° NNE
SPOT 5 3.1 18:47:15 10° S 18:51:55 67° WSW 18:56:22 10° NNW
ATLAS 2AS CENTAUR R/B 2.8 18:50:38 10° WSW 18:57:42 64° SSE 19:04:29 10° E
Meteor 1-21 4.3 18:53:45 10° NNW 18:59:30 77° ENE 19:05:16 10° SSE
Okean 3 Rocket 3.7 18:55:18 10° S 18:59:41 56° E 19:04:04 10° NNE
Cosmos 1656 Rocket 3.8 18:54:01 10° NW 18:59:46 83° SW 19:05:00 12° SE
Cosmos 1697 Rocket 3.4 18:55:32 10° W 19:01:05 54° N 19:06:39 10° ENE
Okean O Rocket 3.0 18:58:15 10° SSW 19:02:26 39° W 19:06:38 10° NNW
H-2A R/B 4.4 18:59:22 10° E 19:02:27 20° NE 19:05:35 10° N
MetOp-A 4.3 18:58:35 12° SE 19:02:33 46° NE 19:07:14 10° NNW
IKONOS-2 4.4 18:58:43 10° NNE 19:02:53 66° ESE 19:07:02 10° S
Cosmos 2360 Rocket 2.2 18:57:46 10° SW 19:03:25 77° SE 19:09:04 10° NE
Helios 1A 3.4 19:00:02 10° NNE 19:04:05 64° WNW 19:08:07 10° SW
Landsat 4 4.3 19:01:44 14° ESE 19:04:21 37° NE 19:07:31 10° NNW
Cosmos 2228 Rocket 3.3 19:00:29 10° NNW 19:05:00 61° ENE 19:09:07 13° SE
Cosmos 1340 2.9 19:02:02 10° SW 19:05:17 61° WNW 19:08:34 10° NNE
Cosmos 2297 3.8 19:01:11 10° NW 19:06:51 82° SW 19:11:54 13° SE
Resurs 01 Rocket 3.7 19:03:30 10° SSW 19:07:18 27° W 19:11:08 10° NNW
SL-08 R/B 4.1 19:06:28 10° NNE 19:11:17 59° WNW 19:16:07 10° SW
Cosmos 1656 4.4 19:06:22 10° WNW 19:12:00 55° N 19:17:38 10° E
Aureole 3 Rocket 4.0 19:06:00 10° SSE 19:12:16 47° E 19:16:49 10° NNE
Cosmos 2322 Rocket 2.2 19:06:35 10° SW 19:12:20 88° SE 19:18:05 10° NE
Cosmos 2237 Rocket 3.1 19:07:52 10° SSE 19:12:25 26° ESE 19:17:00 10° NE
MOS 1 Rocket 3.9 19:08:07 10° S 19:13:10 66° WSW 19:18:29 10° NNW
ACS3 Solar Sail 2.7 19:09:31 10° S 19:15:47 52° W 19:22:03 10° NNW
Cosmos 1814 Rocket 4.2 19:11:20 10° S 19:16:25 49° ESE 19:21:28 10° NE
Okean-O 3.7 19:14:20 10° S 19:18:32 43° W 19:22:46 10° NNW
Cosmos 2369 4.4 19:13:46 10° W 19:19:27 59° NNW 19:25:07 10° ENE
Cosmos 2333 Rocket 2.2 19:14:33 10° SW 19:20:21 83° SE 19:26:09 10° NE
CZ-4C R/B 4.0 19:17:29 10° NNE 19:20:53 32° E 19:23:39 14° SSE
ARIANE 5 R/B 3.5 19:19:16 14° ESE 19:22:35 37° NE 19:26:35 10° NNW
Cosmos 1805 3.6 19:21:00 13° SSE 19:23:55 39° E 19:27:22 10° NNE
Cosmos 2219 Rocket 2.2 19:18:40 10° SW 19:24:19 69° SE 19:29:58 10° NE
USA 245 2.8 19:22:42 14° S 19:24:28 46° WSW 19:26:50 10° NNW
Sich 1 3.3 19:20:32 10° S 19:24:38 46° E 19:28:47 10° NNE
DELTA 2 DEB (DPAF) 4.0 19:25:54 10° NNE 19:30:04 63° ESE 19:34:14 10° S
Cosmos 2278 4.1 19:24:47 10° WSW 19:30:28 68° NNW 19:36:09 10° ENE
SL-16 R/B 2.5 19:26:47 10° WSW 19:32:29 72° NNW 19:38:11 10° ENE
USA 267 4.3 19:29:00 13° SSE 19:33:54 30° SSW 19:39:33 10° W
Cosmos 2369 Rocket 2.3 19:29:39 10° NW 19:35:23 73° SW 19:39:53 17° SE
Cosmos 1766 Rocket 4.1 19:33:00 10° SSW 19:37:20 62° WNW 19:41:44 10° NNE
USA 32 4.4 19:32:23 10° NNW 19:37:35 64° W 19:42:45 10° S
Okean 2 3.4 19:35:02 10° NNW 19:39:00 63° ENE 19:41:41 20° SE
Cosmos 1500 Rocket 3.6 19:34:47 10° S 19:39:06 61° E 19:43:25 10° NNE
Cosmos 1980 4.3 19:35:42 10° S 19:40:49 36° ESE 19:45:59 10° NE
Cosmos 1743 Rocket 3.7 19:39:38 12° S 19:43:29 54° E 19:47:45 10° NNE
Cosmos 1315 Rocket 4.2 19:40:12 10° NNW 19:43:48 34° W 19:47:25 10° SSW
Cosmos 2322 3.7 19:39:33 10° SSW 19:45:07 63° SE 19:50:44 10° NE
Cosmos 192 4.3 19:40:26 10° NW 19:45:22 84° SW 19:48:53 19° SE
Spot 2 Rocket 4.0 19:41:58 10° S 19:46:55 57° WSW 19:51:55 10° NNW
Cosmos 1408 2.3 19:46:27 10° N 19:49:04 44° ENE 19:50:04 28° ESE
Cosmos 2344 3.6 19:43:10 10° W 19:50:27 73° S 19:59:22 10° ESE
Cosmos 2333 4.3 19:47:53 10° SW 19:53:42 87° NW 19:59:29 10° NE
Meteor 2-10 4.2 19:48:05 10° SSW 19:53:43 84° ESE 19:59:30 10° NNE
Cosmos 1733 3.1 19:50:43 10° SSW 19:54:11 74° WNW 19:57:39 10° NNE
Cosmos 1766 4.0 19:52:59 23° SE 19:54:23 31° E 19:57:40 10° NNE
Cosmos 1726 4.1 19:52:12 10° WSW 19:54:35 23° NW 19:56:57 10° N
NOSS 3-4 (A) 4.2 19:49:28 10° WNW 19:55:29 47° SSW 20:00:35 18° SSE
NOSS 3-4 (C) 4.2 19:49:34 10° WNW 19:55:35 47° SSW 20:00:40 18° SSE
Cosmos 1570 Rocket 4.3 19:51:10 10° S 19:56:10 45° ESE 20:01:11 10° NE
Cosmos 1408 Rocket 3.5 19:51:50 10° SSW 19:56:14 89° ESE 20:00:42 10° NNE
Cosmos 1174 3.8 19:53:09 10° WSW 19:57:47 78° SSE 20:01:31 10° E
Cosmos 1980 Rocket 3.0 19:53:34 10° W 19:59:06 53° N 20:04:36 10° ENE
Cosmos 1975 2.9 19:57:50 20° S 20:00:21 53° E 20:04:11 10° NNE
Cosmos 1943 Rocket 3.9 19:56:45 10° WNW 20:01:05 24° WSW 20:05:26 10° SSW
Cosmos 1536 3.2 19:57:59 10° SSW 20:01:47 61° WNW 20:05:37 10° NNE
RESURS DK-1 2.9 19:58:52 10° WNW 20:02:55 56° NNE 20:06:43 11° E
COSMOS 2428 2.7 19:58:32 10° SSW 20:04:12 67° SE 20:09:56 10° NE
Cosmos 1818 3.7 19:58:56 10° SW 20:04:13 50° SE 20:09:31 10° ENE
Cosmos 2266 Rocket 4.0 20:00:09 10° NNW 20:06:21 78° ENE 20:10:56 20° SSE
Okean 1-7 3.0 20:02:08 10° NNW 20:06:30 84° ENE 20:09:11 23° SSE
Meteor 2-5 Rocket 4.3 20:00:45 10° NNW 20:06:35 52° NE 20:10:47 19° SE
SeaSat 1 3.4 20:03:58 10° ENE 20:08:43 50° NNW 20:13:28 10° W
SL-16 R/B 3.3 20:07:18 20° SE 20:09:11 24° ESE 20:13:39 10° NE
Cosmos 1908 4.5 20:09:21 20° ESE 20:09:58 21° E 20:12:42 10° NE
Cosmos 2056 Rocket 3.9 20:06:03 10° NW 20:11:12 61° NE 20:15:11 17° ESE
Cosmos 2263 4.5 20:06:01 10° NW 20:11:44 62° SW 20:15:30 21° SSE
Cosmos 841 Rocket 4.0 20:06:46 10° WSW 20:11:55 62° NW 20:17:04 10° NE
ASTEX 1 4.0 20:09:36 21° SE 20:12:29 44° ENE 20:17:07 10° N
Terra 3.1 20:09:45 10° SSW 20:14:04 35° W 20:18:26 10° NNW
Aureole 3 2.9 20:11:03 10° NNW 20:14:17 86° WSW 20:16:09 27° SSE
Cosmos 2278 Rocket 4.5 20:13:11 10° WNW 20:16:41 17° W 20:20:10 10° SW
Cosmos 1464 Rocket 4.5 20:11:06 10° SSW 20:17:25 66° WNW 20:23:48 10° NNE
Cosmos 158 Rocket 4.0 20:13:22 11° SSW 20:17:54 50° ESE 20:22:38 10° NE
Cosmos 1805 Rocket 3.5 20:14:31 10° SSW 20:18:52 86° WNW 20:23:14 10° NNE
Meteor 1-11 Rocket 3.8 20:13:36 10° SSW 20:19:14 78° WNW 20:24:49 10° NNE
Ariane Rocket 4.0 20:14:46 11° SSW 20:19:24 42° W 20:24:16 10° NNW
Cosmos 1862 Rocket 4.1 20:16:34 10° NNW 20:20:51 55° W 20:24:00 18° S
Genesis I 2.9 20:17:33 10° WSW 20:21:00 56° SSE 20:24:13 12° E
Okean 3 3.9 20:17:31 10° NNW 20:21:34 54° W 20:24:21 19° S
SPOT 3 Rocket 4.5 20:17:15 11° SSW 20:21:55 43° W 20:26:50 10° NNW
Cosmos 1634 Rocket 4.0 20:17:05 11° S 20:23:11 79° ESE 20:29:33 10° NNE
USA 281 4.2 20:19:08 10° E 20:25:22 46° N 20:31:36 10° WNW
Cosmos 1707 Rocket 4.4 20:21:47 10° NNW 20:26:05 47° W 20:29:24 16° SSW
Cosmos 1655 Rocket 4.1 20:20:22 10° NNW 20:26:45 76° ENE 20:31:03 22° SSE
ALOS 2 3.2 20:25:26 23° ESE 20:27:55 49° ENE 20:32:11 10° NNW
Meteor 2-9 Rocket 4.3 20:22:59 10° SSW 20:28:21 76° WNW 20:33:52 10° NNE
Meteor 1-24 Rocket 4.1 20:22:42 10° NNW 20:28:45 64° ENE 20:32:38 22° SE
Landsat 5 3.9 20:25:44 10° NNE 20:29:15 35° E 20:30:17 30° SE
Cosmos 1470 3.3 20:31:10 30° SE 20:32:09 36° E 20:35:33 10° NNE
Cosmos 1825 3.2 20:29:10 10° N 20:32:09 30° ENE 20:33:27 22° E
Cosmos 1703 Rocket 3.6 20:27:40 10° NNW 20:32:11 89° WSW 20:34:36 27° SSE
Cosmos 1633 Rocket 3.2 20:30:16 26° SSE 20:32:30 55° E 20:36:50 10° NNE
Cosmos 2034 Rocket 4.3 20:29:56 10° SSW 20:36:08 67° WNW 20:42:18 10° NNE
USA 215 4.0 20:31:01 10° E 20:36:24 26° SSE 20:41:46 10° SSW
H-2A R/B 3.0 20:34:25 25° ESE 20:36:35 52° ENE 20:40:44 10° NNW
Landsat 4 4.2 20:35:20 25° SSW 20:36:58 45° WSW 20:40:16 10° NNW
MetOp-A 4.2 20:36:30 22° S 20:39:22 56° WSW 20:44:10 10° NNW
Cosmos 1666 Rocket 3.5 20:37:49 24° S 20:40:20 69° ESE 20:44:43 10° NNE
Cosmos 2208 Rocket 4.0 20:35:48 11° SSW 20:40:53 62° ESE 20:46:12 10° NE
Cosmos 1470 Rocket 3.9 20:39:32 29° SSE 20:41:28 48° E 20:45:48 10° NNE
Cosmos 2142 Rocket 4.5 20:38:14 20° S 20:42:38 69° E 20:48:45 10° NNE
Cosmos 2228 Rocket 4.4 20:38:50 10° NNW 20:43:01 37° W 20:46:32 14° SSW
EO 1 Delta rocket 4.2 20:38:32 10° NNE 20:43:04 46° E 20:45:09 28° SSE
NOSS 0 Rocket 3.9 20:38:39 10° SW 20:44:52 70° SE 20:51:06 10° NE
Cosmos 1697 Rocket 3.1 20:40:08 10° WNW 20:45:46 62° NNE 20:51:24 10° ESE
Cosmos 1420 Rocket 4.0 20:40:34 10° NW 20:45:47 87° NE 20:48:48 26° SE
Cosmos 2360 Rocket 2.8 20:42:05 10° W 20:47:42 61° NNW 20:53:19 10° ENE
ATLAS 2AS CENTAUR R/B 2.7 20:41:19 10° W 20:48:22 73° S 20:55:08 10° ESE
Cosmos 773 Rocket 4.2 20:46:06 22° S 20:49:14 50° ESE 20:54:22 10° NE
Cosmos 1441 Rocket 2.9 20:48:02 29° SSW 20:49:45 81° ESE 20:53:22 10° NNE
Cosmos 1892 3.2 20:49:58 10° N 20:53:17 42° ENE 20:54:25 31° ESE
CZ-4C R/B 3.7 20:51:19 10° NNE 20:54:57 58° WNW 20:58:28 12° SW
Cosmos 2237 Rocket 2.1 20:50:09 10° SW 20:55:44 68° SE 21:01:21 10° NE
Cosmos 1656 3.7 20:50:24 10° NW 20:56:11 83° NE 21:00:10 21° ESE
Cosmos 2322 Rocket 2.9 20:51:09 10° W 20:56:48 57° NNW 21:02:28 10° ENE
Cosmos 1814 Rocket 4.4 20:53:04 10° WSW 20:58:21 67° NW 21:03:35 10° NE
ARIANE 5 R/B 2.7 20:56:43 29° S 20:58:50 67° WSW 21:03:10 10° NNW
Cosmos 1805 4.2 20:55:28 10° SW 20:58:59 43° WNW 21:02:32 10° NNE
Aureole 3 Rocket 4.2 20:53:09 10° SW 20:59:27 56° WNW 21:03:59 10° NNE
Cosmos 1703 3.0 20:57:22 10° NNW 21:01:03 90° WNW 21:02:14 41° SSE
ACS3 Solar Sail 4.2 20:56:56 10° WSW 21:01:23 19° WNW 21:05:52 10° NNW
Cosmos 1933 Rocket 4.1 21:00:27 32° SE 21:01:51 42° E 21:05:57 10° NNE
Sich 1 4.0 20:57:57 10° SW 21:02:06 46° WNW 21:06:18 10° NNE
Cosmos 1346 Rocket 3.4 21:01:37 33° SE 21:02:23 37° E 21:05:58 10° NNE
Cosmos 2369 4.4 20:58:43 10° WNW 21:04:22 56° N 21:09:59 10° E
Cosmos 2333 Rocket 2.8 20:59:17 10° W 21:05:00 60° NNW 21:10:44 10° ENE
Cosmos 2219 Rocket 2.7 21:02:47 10° WSW 21:08:28 64° NNW 21:14:07 10° ENE
Cosmos 1371 Rocket 3.9 21:06:33 10° NW 21:11:46 83° SW 21:14:26 30° SE
Cosmos 2279 Rocket 4.0 21:06:50 16° SSW 21:12:00 83° WNW 21:18:17 10° NNE
NOSS 3-3 (C) 4.5 21:09:28 23° S 21:12:29 38° SE 21:18:49 10° ENE
Cosmos 1437 Rocket 4.3 21:09:15 10° NNW 21:12:38 28° NE 21:14:47 17° E
SL-16 R/B 3.0 21:11:38 10° W 21:17:13 54° N 21:22:49 10° ENE
DNEPR-1 R/B 4.4 21:10:46 10° W 21:17:49 72° SSW 21:22:29 16° ESE
Spot 4 3.8 21:16:00 32° S 21:18:13 75° WSW 21:23:01 10° NNW
Cosmos 2369 Rocket 3.5 21:13:54 10° NW 21:18:45 29° WSW 21:21:39 19° SSW
Cosmos 1408 3.6 21:18:28 10° NW 21:20:41 23° W 21:21:07 22° WSW
Cosmos 1300 3.4 21:21:30 31° ESE 21:21:51 32° E 21:25:01 10° NNE
Cosmos 521 Rocket 4.5 21:15:40 10° W 21:22:14 83° SSW 21:28:47 10° ESE
CZ-2C R/B 3.9 21:17:50 10° NNE 21:22:24 56° ESE 21:24:06 35° SSE
Cosmos 1980 3.6 21:18:46 10° SW 21:24:29 86° SE 21:30:13 10° NE
Cosmos 1758 4.2 21:23:50 30° ESE 21:24:29 32° E 21:27:54 10° NNE
Cosmos 1624 Rocket 4.0 21:20:03 10° NW 21:25:23 75° SW 21:27:57 31° SSE
Spot 1 3.8 21:22:21 10° NNE 21:26:30 77° ESE 21:28:05 36° S
H-2A R/B 4.3 21:24:58 10° NE 21:27:07 13° E 21:28:45 11° ESE
SL-16 R/B 4.5 21:22:02 10° ENE 21:27:10 28° NNE 21:32:19 10° NW
SL-24 DEB 4.3 21:23:25 10° N 21:27:58 72° W 21:30:15 29° SSW
Cosmos 1766 3.6 21:27:22 24° SW 21:29:21 55° WNW 21:33:00 10° NNE
Cosmos 2322 4.1 21:23:45 10° WSW 21:29:24 68° NNW 21:35:05 10° ENE
NOSS 3-3 (A) 4.3 21:25:46 21° SSW 21:29:26 43° SE 21:36:00 10° ENE
Cosmos 2242 Rocket 3.6 21:25:02 10° NNW 21:29:35 76° WSW 21:31:26 36° S
Cosmos 1378 Rocket 3.7 21:27:00 10° NNW 21:31:20 66° ENE 21:33:05 34° SE
Cosmos 1953 4.2 21:30:32 16° E 21:31:28 17° E 21:34:04 10° NE
PSLV R/B 4.4 21:30:59 10° NNE 21:34:55 45° E 21:35:53 38° SE
ATLAS CENTAUR R/B 2.2 21:36:42 29° ESE 21:36:42 29° ESE 21:39:11 10° E
Cosmos 1975 4.1 21:32:51 11° SW 21:36:18 36° WNW 21:39:58 10° N
SL-24 R/B 4.5 21:36:20 39° S 21:37:47 74° WSW 21:42:05 10° NNW
Cosmos 1570 Rocket 4.3 21:32:58 10° SW 21:38:15 71° NW 21:43:32 10° NE
Cosmos 1174 3.5 21:35:29 10° W 21:39:46 86° S 21:41:56 23° E
RESURS DK-1 2.2 21:36:42 10° WNW 21:40:48 77° SW 21:42:14 39° SE
Cosmos 1745 Rocket 4.1 21:34:35 10° NNW 21:40:52 71° ENE 21:44:29 27° SSE
Cosmos 783 Rocket 4.5 21:38:42 28° SSW 21:41:30 66° ESE 21:46:44 10° NE
Cosmos 1980 Rocket 2.5 21:38:08 10° WNW 21:43:46 67° NNE 21:49:21 10° ESE
Cosmos 1908 3.0 21:43:17 45° SSW 21:44:16 79° WNW 21:47:48 10° NNE
SeaSat 1 3.5 21:41:01 10° E 21:45:43 46° N 21:50:26 10° WNW
Cosmos 1607 4.4 21:44:29 27° S 21:47:23 43° SE 21:53:22 10° ENE
Cosmos 1818 3.5 21:42:01 10° WSW 21:47:31 77° S 21:53:01 10° E
COSMOS 2428 3.1 21:42:53 10° WSW 21:48:37 66° NNW 21:54:23 10° ENE
Cosmos 1452 Rocket 3.6 21:44:17 10° NW 21:49:36 81° NE 21:52:49 25° SE
Meteor 2-5 Rocket 4.1 21:44:20 10° NNW 21:50:11 60° W 21:53:14 29° S
ASTEX 1 3.8 21:48:59 28° SSW 21:51:23 56° W 21:56:13 10° N
SL-16 R/B 2.2 21:49:08 25° SSW 21:52:28 64° SE 21:58:06 10° NE
Cosmos 2056 Rocket 3.7 21:48:17 10° NW 21:53:22 56° WSW 21:55:27 34° S
Cosmos 1331 Rocket 4.0 21:48:23 10° NW 21:53:40 82° NE 21:56:49 25° SE
Cosmos 1455 3.4 21:55:40 23° E 21:55:57 23° E 21:58:42 10° NE
Genesis I 2.8 21:53:17 10° W 21:56:48 65° S 21:57:29 51° SE
Cosmos 2360 4.2 21:52:26 10° NW 21:58:12 76° SW 22:01:27 27° SE
Cosmos 158 Rocket 4.3 21:54:35 10° WSW 21:59:26 61° NW 22:04:18 10° NE
Cosmos 2344 4.0 21:56:58 10° WNW 22:04:15 51° SW 22:10:20 22° SSE
ALOS 2 3.1 22:02:50 33° SSW 22:04:20 48° W 22:08:38 10° NNW
CZ-2C R/B 3.8 21:59:37 10° ESE 22:04:21 37° NE 22:09:04 10° NNW
Landsat 5 3.8 22:00:52 10° NNE 22:04:34 52° WNW 22:06:25 26° SW
In-Cosmos 22 Rocket 4.5 21:59:03 10° NNW 22:04:37 65° ENE 22:08:01 25° SE
SL-24 R/B 4.2 22:01:44 10° NNE 22:06:09 65° ESE 22:07:31 41° S
Cosmos 1825 2.1 22:02:56 10° NNW 22:06:11 52° W 22:06:34 48° SW
Cosmos 1470 3.4 22:05:39 27° WSW 22:07:18 47° WNW 22:10:54 10° NNE
Cosmos 1110 Rocket 3.9 22:02:12 10° NW 22:07:25 86° SW 22:10:06 29° SE
USA 281 3.6 22:02:51 10° ESE 22:09:21 66° NNE 22:15:53 10° NW
Cosmos 1633 Rocket 4.2 22:07:14 16° WSW 22:10:25 40° WNW 22:14:37 10° NNE
Spot 2 4.5 22:09:16 37° S 22:10:57 61° WSW 22:15:47 10° NNW
H-2A R/B 3.2 22:10:17 33° SW 22:11:32 43° W 22:15:37 10° NNW
Meteor 1-24 Rocket 4.4 22:06:02 10° NNW 22:11:48 48° W 22:14:47 27° SSW
Meteor 1-22 Rocket 4.2 22:12:20 32° S 22:15:06 76° ESE 22:20:39 10° NNE
Meteor 1-15 Rocket 4.3 22:12:14 31° S 22:15:11 76° ESE 22:21:07 10° NNE
Cosmos 1733 Rocket 3.4 22:14:47 38° SSE 22:16:01 51° E 22:20:13 10° NNE
Cosmos 1943 3.6 22:16:28 33° S 22:18:29 47° ESE 22:23:53 10° NE
Cosmos 1470 Rocket 4.4 22:16:35 20° SW 22:19:21 46° WNW 22:23:42 10° NNE
Meteor 1-21 Rocket 4.3 22:14:12 10° NNW 22:20:11 88° ENE 22:23:19 30° SSE
USA 215 3.6 22:14:42 10° E 22:20:46 38° SSE 22:26:48 10° SW
PSLV R/B 4.1 22:17:57 10° NNE 22:22:31 52° ESE 22:24:02 36° SSE
Cosmos 839 Rocket 4.1 22:17:36 10° WSW 22:25:02 78° SSE 22:31:21 10° ENE
Cosmos 1892 3.3 22:24:28 10° NNW 22:27:39 36° W 22:28:04 34° WSW
Cosmos 1674 Rocket 3.7 22:24:16 10° NNW 22:28:38 64° W 22:30:00 41° SSW
Cosmos 1869 Rocket 3.5 22:27:03 38° SSW 22:28:40 77° WNW 22:33:01 10° NNE
Cosmos 1697 Rocket 2.6 22:24:20 10° NW 22:29:59 73° SW 22:33:16 26° SE
Cosmos 1709 Rocket 4.0 22:23:55 10° NNW 22:30:18 89° W 22:33:49 29° SSE
Cosmos 773 Rocket 4.4 22:26:08 12° WSW 22:31:05 66° NW 22:36:25 10° NE
NOSS 0 Rocket 4.2 22:25:14 10° WSW 22:31:30 70° NNW 22:37:46 10° ENE
Cosmos 1538 Rocket 4.0 22:29:28 33° SSW 22:31:54 69° SE 22:37:16 10° NE
Cosmos 2360 Rocket 2.9 22:26:51 10° WNW 22:32:26 55° N 22:37:58 10° E
Cosmos 1553 Rocket 4.0 22:29:44 31° S 22:33:00 76° ESE 22:39:16 10° NNE
Cosmos 1328 3.9 22:32:17 10° NNW 22:36:07 59° WSW 22:36:55 47° SSW
Cosmos 1346 Rocket 3.4 22:36:30 29° WSW 22:38:06 49° WNW 22:41:52 10° NNE
Meteor 2-10 Rocket 3.6 22:35:37 32° SSW 22:38:10 88° WNW 22:43:44 10° NNE
ATLAS 2AS CENTAUR R/B 2.8 22:32:08 10° WNW 22:38:52 53° SSW 22:43:40 19° SE
Cosmos 1656 4.2 22:34:12 10° NW 22:39:35 44° WSW 22:41:33 32° SSW
Cosmos 1933 Rocket 4.2 22:37:30 26° SW 22:39:38 50° WNW 22:43:53 10° NNE
Cosmos 2237 Rocket 2.6 22:34:21 10° WSW 22:39:58 65° NNW 22:45:36 10° ENE
Cosmos 1025 Rocket 2.9 22:37:01 10° NNW 22:41:25 83° WSW 22:42:53 41° S
Cosmos 2322 Rocket 2.9 22:35:57 10° WNW 22:41:36 57° NNE 22:47:14 10° E
Cosmos 2221 Rocket 3.8 22:38:29 10° NNW 22:42:55 57° W 22:44:19 39° SSW
Cosmos 2074 Rocket 4.3 22:40:56 10° NNW 22:47:08 62° ENE 22:51:47 18° SE
Cosmos 1992 Rocket 4.2 22:42:56 10° NW 22:48:10 71° NE 22:53:24 10° SE
Cosmos 923 Rocket 4.3 22:46:17 35° S 22:48:12 53° ESE 22:53:17 10° NE
Cosmos 1437 Rocket 2.6 22:44:44 10° NNW 22:48:35 76° WSW 22:49:28 50° S
Cosmos 2369 3.7 22:43:16 10° NW 22:49:01 86° NE 22:54:45 10° SE
Meteor 1-11 4.3 22:44:07 10° NNW 22:49:54 87° ENE 22:53:11 27° SSE
Cosmos 2333 Rocket 2.9 22:44:17 10° WNW 22:50:01 58° N 22:55:42 10° E
Cosmos 2219 Rocket 3.0 22:47:31 10° WNW 22:53:06 54° N 22:58:40 10° E
Cosmos 1300 3.1 22:55:16 37° WSW 22:56:15 49° WNW 22:59:42 10° NNE
Cosmos 1680 Rocket 3.9 22:54:53 33° S 22:56:53 50° ESE 23:02:01 10° NE
Cosmos 724 4.3 22:54:45 25° SW 22:58:09 62° SSE 23:03:55 10° ENE
Cosmos 2278 4.0 22:54:22 10° WNW 23:00:04 70° NNE 23:05:44 10° ESE
Cosmos 1758 3.6 22:58:56 36° WSW 23:00:11 56° WNW 23:03:57 10° NNE
CZ-2D R/B 4.4 22:58:00 10° NE 23:01:31 17° ENE 23:05:02 10° ESE
SL-16 R/B 2.6 22:56:19 10° WNW 23:02:00 67° NNE 23:07:41 10° ESE
NOSS 3-3 (C) 4.1 22:56:52 11° WSW 23:02:39 65° SSE 23:09:57 10° E
H-2A R/B 2.7 22:59:34 10° NNE 23:03:51 46° ESE 23:05:28 31° SSE
Cosmos 1953 2.2 23:05:32 46° S 23:06:35 72° ESE 23:10:29 10° NNE
Cosmos 1980 4.3 23:03:19 10° W 23:08:57 58° NNW 23:14:37 10° ENE
SL-16 R/B 3.5 23:03:48 10° ESE 23:09:44 48° NE 23:15:43 10° NNW
Cosmos 1975 Rocket 2.9 23:06:57 10° NNW 23:11:20 86° WSW 23:13:04 36° SSE
Meteor 1-12 Rocket 4.3 23:09:19 28° SW 23:12:22 74° WNW 23:18:03 10° NNE
ATLAS CENTAUR R/B 1.1 23:11:25 38° SW 23:12:41 65° SSE 23:16:39 10° E
Cosmos 2322 4.5 23:08:41 10° WNW 23:14:15 54° N 23:19:50 10° E
MINOTAUR 4 R/B 3.7 23:12:00 10° NNE 23:14:18 54° NW 23:14:18 54° NW
RESURS DK-1 3.6 23:14:38 10° WNW 23:17:44 26° WSW 23:17:44 26° WSW
NOSS 3-3 (A) 4.1 23:13:37 10° WSW 23:19:43 68° SSE 23:27:07 10° E
Cosmos 2084 Rocket 4.3 23:19:51 29° SE 23:19:51 29° SE 23:23:22 10° E
Cosmos 1174 3.8 23:17:45 10° WNW 23:21:12 44° SW 23:21:12 44° SW
SeaSat 1 2.8 23:17:57 10° ESE 23:22:51 68° NNE 23:27:46 10° NW
Cosmos 1302 Rocket 4.0 23:17:49 10° NW 23:23:04 64° WSW 23:25:50 27° SSE
ADEOS II 4.4 23:21:07 10° NE 23:24:30 17° E 23:27:51 10° ESE
Cosmos 2184 Rocket 4.0 23:18:21 10° NNW 23:24:39 86° ENE 23:29:04 21° SSE
S3M 3.9 23:21:51 29° SSW 23:25:12 87° ESE 23:31:27 10° NNE
SL-19 R/B 4.3 23:20:00 10° NNE 23:25:37 84° ESE 23:28:39 29° SSW
Cosmos 1980 Rocket 2.1 23:22:19 10° NW 23:27:52 64° SW 23:31:53 19° SSE
Cosmos 1295 Rocket 4.4 23:23:19 10° NNW 23:29:29 86° ENE 23:33:44 21° SSE
Cosmos 1455 2.0 23:29:05 49° SW 23:29:49 66° WNW 23:33:12 10° NNE
Cosmos 1818 3.5 23:25:32 10° W 23:31:02 73° SSW 23:36:31 10° ESE
Cosmos 1452 Rocket 4.1 23:26:33 10° NW 23:31:25 38° WSW 23:33:02 30° SSW
Genesis I 4.5 23:29:10 10° W 23:30:45 22° W 23:30:45 22° W
COSMOS 2428 3.5 23:27:54 10° WNW 23:33:34 55° N 23:39:14 10° E
IRIDIUM 106 4.3 23:31:29 30° S 23:34:09 81° E 23:39:25 10° N
Cosmos 1607 3.9 23:28:33 14° WSW 23:34:11 72° SSE 23:40:32 10° E
SL-16 R/B 2.5 23:31:02 10° WSW 23:36:43 67° NNW 23:42:23 10° ENE
Cosmos 405 Rocket 2.6 23:37:16 43° SSE 23:38:08 61° ESE 23:41:37 10° NNE
Helios 1A Rocket 2.6 23:37:35 35° SSE 23:39:06 85° WSW 23:42:55 10° NNW
IDEFIX/ARIANE 42P 3.9 23:34:29 10° NNE 23:39:11 32° E 23:42:56 15° SSE
Cosmos 1825 4.4 23:38:19 10° WNW 23:39:18 11° W 23:39:41 11° W
Cosmos 2112 Rocket 4.1 23:37:08 31° SSW 23:39:43 71° SE 23:45:03 10° NE
MOZ.5/SAFIR/RUBIN 5/SL-8 3.7 23:39:25 29° S 23:41:52 75° WSW 23:46:37 10° NNW
CZ-2C R/B 2.5 23:40:58 23° SSE 23:44:20 83° WSW 23:49:33 10° NNW
GENESIS II 3.9 23:43:45 45° SW 23:44:36 61° S 23:48:06 10° E
Cosmos 1536 Rocket 3.7 23:40:54 10° NNW 23:45:24 73° ENE 23:48:25 20° SSE
Cosmos 1300 Rocket 3.8 23:45:54 30° S 23:47:56 61° E 23:52:15 10° NNE
Cosmos 540 Rocket 4.5 23:43:56 10° NW 23:48:54 48° NNE 23:53:52 10° ESE
Cosmos 1603 3.7 23:45:57 26° SW 23:49:14 80° SE 23:54:54 10° NE
Meteor 2-11 Rocket 4.4 23:46:18 10° NNW 23:52:22 71° WSW 23:56:14 23° S
Cosmos 2237 4.1 23:47:46 10° NW 23:53:32 86° SW 23:59:14 10° SE
Cosmos 1733 Rocket 3.8 23:51:47 25° WSW 23:53:53 42° WNW 23:58:01 10° NNE
Cosmos 1763 Rocket 4.2 23:49:22 10° NW 23:54:24 54° NNE 23:59:25 10° ESE
